NOAA 1 1 04793U 70106A 25291.96601100 -.00000026 00000+0 10609-3 0 9996 2 04793 101.3756 331.8607 0031938 99.8915 325.2607 12.54045865510451 NOAA 2 (ITOS-D) 1 06235U 72082A 25291.96196833 -.00000006 00000+0 25420-3 0 9991 2 06235 102.0234 302.7785 0003822 271.4518 157.3933 12.53206029424736 NOAA 3 1 06920U 73086A 25291.95705174 -.00000025 00000+0 15934-3 0 9990 2 06920 102.2937 298.5717 0006277 207.3647 182.0621 12.40386968351997 NOAA 4 1 07529U 74089A 25291.94421698 -.00000004 00000+0 27013-3 0 9993 2 07529 102.0091 297.1794 0008832 298.2399 147.2747 12.53197532329307 NOAA 5 1 09057U 76077A 25291.91943531 -.00000018 00000+0 21824-3 0 9991 2 09057 102.2760 271.8197 0010120 60.4235 356.3141 12.37823080224623 TIROS N 1 11060U 78096A 25291.97105482 .00000317 00000+0 17105-3 0 9990 2 11060 98.4779 318.7081 0009737 216.4175 143.6340 14.19254595644532 NOAA 6 1 11416U 79057A 25291.97337650 .00000574 00000+0 21566-3 0 9998 2 11416 98.5911 317.9009 0008796 251.3131 108.7100 14.35289712416351 NOAA 7 1 12553U 81059A 25291.94943891 .00000112 00000+0 76753-4 0 9990 2 12553 98.8300 356.0175 0010589 235.2264 124.7915 14.17734988290563 NOAA 8 1 13923U 83022A 25291.97874489 .00000297 00000+0 13313-3 0 9999 2 13923 98.7399 299.3319 0013796 242.3503 117.6279 14.29690722216606 NOAA 9 1 15427U 84123A 25292.00174166 .00000223 00000+0 13422-3 0 9993 2 15427 99.1203 307.8155 0013943 315.8728 106.6694 14.16974391109263 NOAA 10 1 16969U 86073A 25291.97587567 .00000292 00000+0 13273-3 0 9999 2 16969 98.6877 280.7922 0011861 347.2272 71.8428 14.29065208 34961 NOAA 11 1 19531U 88089A 25291.87876808 .00000141 00000+0 93037-4 0 9994 2 19531 98.5872 240.8670 0009930 271.3910 88.6127 14.15778223913332 NOAA 12 1 21263U 91032A 25291.94602485 .00000232 00000+0 11371-3 0 9998 2 21263 98.6011 279.3085 0014027 17.8794 342.2877 14.26655307790564 NOAA 13 1 22739U 93050A 25291.87601723 .00000210 00000+0 13378-3 0 9990 2 22739 98.6715 238.7404 0010510 96.8456 263.3913 14.13573254659286 NOAA 14 1 23455U 94089A 25291.94021707 .00000136 00000+0 91890-4 0 9998 2 23455 98.4812 268.0769 0010514 60.2025 300.0194 14.14614751589099 NOAA 15 1 25338U 98030A 25291.92968446 .00000276 00000+0 13099-3 0 9997 2 25338 98.5283 313.8614 0009790 340.8213 19.2598 14.27037820426886 NOAA 16 1 26536U 00055A 25291.99208548 .00000177 00000+0 11508-3 0 9998 2 26536 98.4809 313.8427 0009237 274.5761 85.4358 14.13845631589644 NOAA 17 1 27453U 02032A 25291.95477124 .00000414 00000+0 19211-3 0 9991 2 27453 98.8301 250.2920 0011254 336.2246 23.8412 14.26084579212608 NOAA 18 1 28654U 05018A 25291.91793913 .00000164 00000+0 10975-3 0 9995 2 28654 98.8340 9.8641 0015217 115.3981 244.8769 14.13653397 52224 NOAA 19 1 33591U 09005A 25291.94551328 .00000106 00000+0 80310-4 0 9993 2 33591 98.9838 357.3017 0013591 356.9739 3.1349 14.13418932860409 SUOMI NPP 1 37849U 11061A 25291.92627924 .00000186 00000+0 10904-3 0 9991 2 37849 98.7676 229.7851 0000877 359.1135 1.0039 14.19531692724219 NOAA 20 (JPSS-1) 1 43013U 17073A 25291.94062967 .00000157 00000+0 95474-4 0 9996 2 43013 98.7503 228.8621 0000311 163.5198 196.5989 14.19503634410246 NOAA 21 (JPSS-2) 1 54234U 22150A 25291.90606101 .00000173 00000+0 10297-3 0 9992 2 54234 98.7366 228.9217 0002187 128.2431 231.8942 14.19574022152315